Folsom Lake Weather Center

Moon Phase Calendar



Folsom Lake Water Level
Online Cameras

 


      

Current Conditions in Granite Bay
8/17/2022 10:12:10 AM

93°F
Feels Like 91
Clouds
Humidity
25%
Pressure
29.83"
Wind
1 mph (SW)
Dew Point
52°F
UV Index
3/10 (Moderate)
Visibility
6 mi

Hourly Forecast

Date & Time Wed, Aug 17
10:00 AM
Wed, Aug 17
11:00 AM
Wed, Aug 17
12:00 PM
Wed, Aug 17
1:00 PM
Wed, Aug 17
2:00 PM
Wed, Aug 17
3:00 PM
Wed, Aug 17
4:00 PM
Wed, Aug 17
5:00 PM
Wed, Aug 17
6:00 PM
Wed, Aug 17
7:00 PM
Wed, Aug 17
8:00 PM
Wed, Aug 17
9:00 PM
Wed, Aug 17
10:00 PM
Wed, Aug 17
11:00 PM
Thu, Aug 18
12:00 AM
Thu, Aug 18
1:00 AM
Thu, Aug 18
2:00 AM
Thu, Aug 18
3:00 AM
Thu, Aug 18
4:00 AM
Thu, Aug 18
5:00 AM
Thu, Aug 18
6:00 AM
Thu, Aug 18
7:00 AM
Thu, Aug 18
8:00 AM
Thu, Aug 18
9:00 AM
Thu, Aug 18
10:00 AM
Thu, Aug 18
11:00 AM
Thu, Aug 18
12:00 PM
Thu, Aug 18
1:00 PM
Thu, Aug 18
2:00 PM
Thu, Aug 18
3:00 PM
Thu, Aug 18
4:00 PM
Thu, Aug 18
5:00 PM
Thu, Aug 18
6:00 PM
Thu, Aug 18
7:00 PM
Thu, Aug 18
8:00 PM
Thu, Aug 18
9:00 PM
Thu, Aug 18
10:00 PM
Thu, Aug 18
11:00 PM
Fri, Aug 19
12:00 AM
Fri, Aug 19
1:00 AM
Fri, Aug 19
2:00 AM
Fri, Aug 19
3:00 AM
Fri, Aug 19
4:00 AM
Fri, Aug 19
5:00 AM
Fri, Aug 19
6:00 AM
Fri, Aug 19
7:00 AM
Fri, Aug 19
8:00 AM
Fri, Aug 19
9:00 AM
Condition
Clouds

Clouds

Clouds

Clouds

Clouds

Clouds

Clouds

Clouds

Clouds

Clouds

Clouds

Clouds

Clouds

Clouds

Clear

Clear

Clear

Clear

Clear

Clear

Clear

Clear

Clear

Clear

Clear

Clear

Clear

Clear

Clear

Clear

Clear

Clear

Clear

Clear

Clear

Clear

Clear

Clear

Clear

Clear

Clear

Clear

Clear

Clear

Clear

Clear

Clear

Clear
Temperature 93°F94°F96°F99°F102°F106°F105°F103°F102°F98°F92°F87°F82°F80°F78°F77°F76°F75°F74°F73°F73°F74°F79°F84°F88°F92°F95°F98°F101°F102°F103°F103°F101°F96°F86°F81°F78°F76°F75°F74°F73°F72°F71°F71°F70°F71°F78°F83°F
Feels Like 91°F90°F92°F95°F98°F100°F100°F98°F97°F94°F88°F84°F80°F80°F77°F76°F75°F74°F73°F72°F71°F72°F79°F82°F85°F88°F91°F94°F97°F99°F99°F99°F97°F92°F83°F79°F77°F75°F74°F73°F72°F71°F70°F69°F69°F70°F77°F81°F
Cloudiness 27%27%48%64%77%77%78%82%87%47%63%71%64%54%0%1%1%1%0%0%0%0%0%0%0%0%0%0%0%0%0%0%0%0%0%0%0%0%1%1%0%0%0%0%0%0%0%0%
Visibility 6 mi6 mi6 mi6 mi6 mi6 mi6 mi6 mi6 mi6 mi6 mi6 mi6 mi6 mi6 mi6 mi6 mi6 mi6 mi6 mi6 mi6 mi6 mi6 mi6 mi6 mi6 mi6 mi6 mi6 mi6 mi6 mi6 mi6 mi6 mi6 mi6 mi6 mi6 mi6 mi6 mi6 mi6 mi6 mi6 mi6 mi6 mi6 mi
Precipitation 0%0%0%0%0%0%0%0%0%0%0%0%0%0%0%0%0%0%0%0%0%0%0%0%0%0%0%0%0%0%0%0%0%0%0%0%0%0%0%0%0%0%0%0%0%0%0%0%
Humidity 25%22%19%16%12%8%9%11%12%14%18%22%26%28%30%31%32%33%34%35%36%36%30%26%23%21%19%17%16%15%14%14%14%17%23%27%30%32%33%34%35%36%37%37%37%36%29%25%
Dew Point 52°F49°F47°F45°F40°F34°F36°F38°F40°F42°F42°F44°F44°F43°F44°F44°F44°F44°F44°F44°F44°F45°F45°F45°F45°F46°F46°F46°F46°F46°F45°F44°F43°F43°F44°F44°F44°F44°F44°F43°F43°F43°F43°F43°F43°F43°F43°F44°F
Pressure 29.83"29.83"29.83"29.8"29.8"29.77"29.77"29.77"29.77"29.77"29.77"29.8"29.83"29.85"29.85"29.85"29.83"29.85"29.85"29.85"29.85"29.88"29.88"29.88"29.88"29.88"29.85"29.85"29.83"29.8"29.77"29.77"29.77"29.77"29.8"29.83"29.85"29.83"29.83"29.83"29.8"29.8"29.8"29.8"29.8"29.83"29.83"29.83"
Wind Speed 6.6 mph6.8 mph4.9 mph4.8 mph6.6 mph8.2 mph9.9 mph7.6 mph6.7 mph4.3 mph5.2 mph4.9 mph5 mph5.1 mph4.9 mph5 mph4.4 mph4.6 mph4.4 mph3.7 mph3.1 mph2.2 mph1.7 mph3.3 mph4 mph5.7 mph6 mph6 mph6.5 mph6.8 mph6.8 mph7.7 mph8.6 mph8.2 mph6.4 mph6.3 mph6 mph5.4 mph5.5 mph4.5 mph4.6 mph3.4 mph2.6 mph2.6 mph1.9 mph1.9 mph1 mph2.8 mph
Wind
Direction
234°
SW
223°
SW
250°
WSW
264°
W
251°
WSW
237°
WSW
222°
SW
226°
SW
222°
SW
225°
SW
204°
SSW
168°
SSE
120°
ESE
113°
ESE
118°
ESE
116°
ESE
121°
ESE
126°
SE
120°
ESE
108°
ESE
104°
ESE
119°
ESE
179°
S
232°
SW
236°
SW
240°
WSW
242°
WSW
237°
WSW
236°
SW
237°
WSW
233°
SW
229°
SW
225°
SW
211°
SSW
176°
S
143°
SE
127°
SE
122°
ESE
124°
SE
124°
SE
124°
SE
122°
ESE
123°
ESE
100°
E
107°
ESE
108°
ESE
199°
SSW
247°
WSW

Daily Forecast

Date High Low Precip. Humidity
Today
Aug 17

Clouds
106 °F
77 °F
0%
16%
Thursday
Aug 18

Clear
103 °F
73 °F
0%
17%
Friday
Aug 19

Clear
104 °F
71 °F
0%
15%
Saturday
Aug 20

Clear
105 °F
72 °F
0%
10%
Sunday
Aug 21

Clouds
99 °F
72 °F
0%
13%
Monday
Aug 22

Clear
97 °F
67 °F
0%
19%
Tuesday
Aug 23

Clear
99 °F
65 °F
0%
15%
Wednesday
Aug 24

Clear
107 °F
71 °F
0%
8%
Thursday
Aug 25

Clear
107 °F
76 °F
0%
11%
Friday
Aug 26

Clear
107 °F
73 °F
0%
15%
Saturday
Aug 27

Clear
106 °F
73 °F
0%
16%
Sunday
Aug 28

Clear
107 °F
73 °F
0%
14%
Monday
Aug 29

Clear
108 °F
76 °F
0%
9%
Tuesday
Aug 30

Clear
109 °F
77 °F
0%
9%
Wednesday
Aug 31

Clear
109 °F
76 °F
6%
11%
Thursday
Sep 1

Clouds
109 °F
78 °F
24%
10%

Temperature 8-14 Day Outlook



Precipitation 8-14 Day Outlook






About Us
Contact Us
Site Map
Search Site
Advertise With Us
   
Folsom.USLakes.info
THE FOLSOM LAKE WEBSITE

Copyright 2022, Lakes Online
Privacy    |    Legal